EW3836 Weather Reports


Display with metric or nautical units.
time (UTC)temp
F
wind
direction
speed
MPH
gust
MPH
rain 1hr
in
rain 24hr
in
rain mn
in
humidity
%
barometer
mb
20260509213015 65 347 0.0 0.0 0.00 0.00 0.00 42 1017.1
20260509211514 65 194 0.0 0.0 0.00 0.00 0.00 44 1017.3
20260509210018 66 45 0.0 0.0 0.00 0.00 0.00 46 1017.3
20260509204514 65 330 0.0 0.0 0.00 0.00 0.00 50 1017.4
20260509203017 66 260 0.0 0.0 0.00 0.00 0.00 45 1017.4
20260509201510 65 41 0.0 0.0 0.00 0.00 0.00 48 1017.5
20260509200007 64 134 0.0 0.0 0.00 0.00 0.00 50 1017.6
20260509194505 63 330 0.0 0.0 0.00 0.00 0.00 51 1017.8
20260509193002 61 261 0.0 0.0 0.00 0.00 0.00 45 1018.0
20260509191501 61 255 0.0 0.0 0.00 0.00 0.00 45 1018.2
20260509190105 60 257 0.0 0.0 1.09 0.00 0.00 50 1018.4
20260509184607 59 273 0.0 0.0 0.00 0.00 0.00 53 1018.5
20260509183056 59 250 0.0 0.0 0.00 0.00 0.00 55 1018.7
20260509181554 58 118 0.0 0.0 0.00 0.00 0.00 55 1018.9
20260509180052 59 134 0.0 0.0 0.00 0.00 0.00 53 1018.9
20260509174548 57 238 0.0 0.0 0.00 0.00 0.00 53 1018.9
20260509173055 57 80 0.0 0.0 0.00 0.00 0.00 59 1018.7
20260509171600 56 240 0.0 0.0 0.00 0.00 0.00 59 1018.9
20260509170041 56 240 0.0 0.0 0.00 0.00 0.00 61 1019.0
20260509164538 55 204 0.0 0.0 0.00 0.00 0.00 63 1019.0
20260509163137 54 254 0.0 0.0 0.00 0.00 0.00 63 1019.1
20260509161536 54 245 0.0 0.0 0.00 0.00 0.00 63 1019.2
20260509160033 53 267 0.0 0.0 0.00 0.00 0.00 66 1018.9
20260509154529 52 171 0.0 0.0 0.00 0.00 0.00 68 1018.8
20260509153023 52 179 0.0 0.0 0.00 0.00 0.00 68 1018.7
20260509151521 51 229 0.0 0.0 0.00 0.00 0.00 69 1018.7
20260509150018 51 201 0.0 0.0 0.00 0.00 0.00 71 1018.7
20260509144517 50 210 0.0 0.0 0.00 0.00 0.00 72 1018.5
20260509143012 49 193 0.0 0.0 0.00 0.00 0.00 73 1018.5
20260509141520 48 173 0.0 0.0 0.00 0.00 0.00 75 1018.5
20260509140009 47 178 0.0 0.0 0.00 0.00 0.00 78 1018.5
20260509134507 46 155 0.0 0.0 0.00 0.00 0.00 78 1018.6
20260509133006 45 182 0.0 0.0 0.00 0.00 0.00 79 1018.6
20260509131507 45 162 0.0 0.0 0.00 0.00 0.00 79 1018.5
20260509130003 44 159 0.0 0.0 0.00 0.00 0.00 80 1018.4
20260509124620 44 148 0.0 0.0 0.00 0.00 0.00 79 1018.4
20260509123102 45 160 0.0 0.0 0.00 0.00 0.00 79 1018.3
20260509121556 45 218 0.0 0.0 0.00 0.00 0.00 79 1018.2
20260509120106 45 207 0.0 0.0 0.00 0.00 0.00 79 1018.1
20260509114556 45 193 0.0 0.0 0.00 0.00 0.00 79 1018.2
20260509113052 45 198 0.0 0.0 0.00 0.00 0.00 80 1018.2
20260509111549 46 224 0.0 0.0 0.00 0.00 0.00 78 1018.0
20260509110047 45 227 0.0 0.0 0.00 0.00 0.00 80 1018.1
20260509104544 45 242 0.0 0.0 0.00 0.00 0.00 79 1018.1
20260509103045 45 180 0.0 0.0 0.00 0.00 0.00 79 1018.0
20260509101540 46 238 0.0 0.0 0.00 0.00 0.00 78 1017.8
20260509100049 46 211 0.0 0.0 0.00 0.00 0.00 77 1017.8
20260509094536 46 231 0.0 0.0 0.00 0.00 0.00 78 1017.7
20260509093034 46 215 0.0 0.0 0.00 0.00 0.00 76 1017.6
20260509091531 47 234 0.0 0.0 0.00 0.00 0.00 76 1017.6
20260509090029 46 196 0.0 0.0 0.00 0.00 0.00 77 1017.5
20260509084530 46 225 0.0 0.0 0.00 0.00 0.00 77 1017.6
20260509083022 47 255 0.0 0.0 0.00 0.00 0.00 75 1017.5
20260509081523 47 264 0.0 0.0 0.00 0.00 0.00 74 1017.4
20260509080016 47 265 0.0 0.0 0.00 0.00 0.00 73 1017.4
20260509074513 47 242 0.0 0.0 0.00 0.00 0.00 72 1017.2
20260509073010 48 244 0.0 0.0 0.00 0.00 0.00 71 1017.1
20260509071514 48 239 0.0 0.0 0.00 0.00 0.00 70 1017.1
20260509070006 49 257 0.0 0.0 0.00 0.00 0.00 69 1016.9
20260509064503 49 250 0.0 0.0 0.00 0.00 0.00 68 1016.9
20260509063001 49 280 0.0 0.0 0.00 0.00 0.00 66 1016.9
20260509061602 50 271 0.0 0.0 0.00 0.00 0.00 65 1016.9
20260509060107 50 261 0.0 0.0 0.00 0.00 0.00 64 1016.6
20260509054655 51 252 0.0 0.0 0.00 0.00 0.00 62 1016.5
20260509053104 51 267 0.0 0.0 0.00 0.00 0.00 60 1016.6
20260509051557 52 296 0.0 0.0 0.00 0.00 0.00 58 1016.5
20260509050057 52 271 0.0 0.0 0.00 0.00 0.00 57 1016.4
20260509044552 53 289 0.0 0.0 0.00 0.00 0.00 55 1016.1
20260509043049 54 300 0.0 0.0 0.00 0.00 0.00 52 1016.0
20260509041547 54 271 0.0 0.0 0.00 0.00 0.00 51 1015.7
20260509040044 54 267 0.0 0.0 0.00 0.00 0.00 49 1015.5
20260509034548 55 261 0.0 0.0 0.00 0.00 0.00 48 1015.4
20260509033041 55 272 0.0 0.0 0.00 0.00 0.00 47 1015.2
20260509031547 56 292 0.0 0.0 0.00 0.00 0.00 47 1015.0
20260509030038 56 269 0.0 0.0 0.00 0.00 0.00 47 1014.8
20260509024536 57 292 0.0 0.0 0.00 0.00 0.00 45 1014.7
20260509023135 58 293 0.0 0.0 0.00 0.00 0.00 43 1014.6
20260509021535 59 261 0.0 0.0 0.00 0.00 0.00 40 1014.4
20260509020034 60 300 0.0 0.0 0.00 0.00 0.00 38 1014.4
20260509014534 61 331 0.0 0.0 0.00 0.00 0.00 36 1014.4
20260509013051 62 311 0.0 0.0 0.00 0.00 0.00 36 1014.3
20260509011536 62 277 0.0 0.0 0.00 0.00 0.00 35 1014.3
20260509010031 63 294 0.0 0.0 0.00 0.00 0.00 33 1014.2
20260509004533 62 237 0.0 0.0 0.00 0.00 0.00 34 1014.1
20260509003032 63 292 0.0 0.0 0.00 0.00 0.00 32 1014.1
20260509001523 62 301 0.0 0.0 0.00 0.00 0.00 30 1014.2
20260509000018 63 234 0.0 0.0 0.00 0.00 0.00 27 1014.2
20260508234516 64 316 0.0 0.0 0.00 0.00 0.00 24 1014.2
20260508233012 63 230 0.0 0.0 0.00 0.00 0.00 28 1014.1
20260508231509 63 284 0.0 0.0 0.00 0.00 0.00 24 1014.0
20260508230017 64 254 0.0 0.0 0.00 0.00 0.00 27 1014.0
20260508224515 64 271 0.0 0.0 0.00 0.00 0.00 27 1014.1
20260508223010 64 281 0.0 0.0 0.00 0.00 0.00 33 1014.1
20260508221502 63 308 0.0 0.0 0.00 0.00 0.00 34 1014.2
20260508220003 62 320 0.0 0.0 0.00 0.00 0.00 38 1014.2
20260508214602 63 306 0.0 0.0 0.00 0.00 0.00 38 1014.3